Temp
-7 -7 -7 -7 -6 -6 -6 -7 -7 -7 -7 -7 -7 -7 -7 -7 -7 -7 -6 -6 -6 -6 -6 -7 -7 -7 -6 -6 -6 -6 -6 -6 -6 -6 -6 -6 -6 -6 -6 -6 -7 -7 -7 -7 -7 -7 -7 -6 -6 -6 -6 -6 -6 -6 -7 -7 -7 -7 -7 -7 -7 -7 -7
-6 -7 -7 -7 -7 -6 -6 -7 -7 -7 -7 -7 -7 -7 -7 -7 -7 -7 -7 -6 -6 -6 -6 -6 -6 -7 -7 -7 -7 -6 -6 -6 -6 -6 -6 -6 -6 -6 -6 -6 -7 -7 -7 -7 -7 -7 -7 -7 -6 -6 -6 -6 -6 -6 -6 -7 -7 -7 -7 -7 -7 -7 -7
-6 -7 -7 -7 -7 -7 -6 -7 -7 -7 -7 -8 -7 -7 -7 -7 -7 -7 -7 -7 -6 -6 -6 -6 -6 -6 -6 -7 -7 -7 -6 -6 -6 -6 -6 -6 -6 -6 -6 -6 -7 -7 -7 -7 -7 -7 -7 -7 -6 -6 -6 -6 -6 -6 -6 -6 -7 -7 -7 -7 -7 -7 -7
-7 -7 -7 -7 -7 -6 -6 -6 -7 -7 -7 -8 -8 -7 -7 -7 -7 -7 -7 -7 -7 -6 -7 -7 -6 -6 -6 -7 -7 -7 -7 -7 -7 -6 -6 -6 -6 -6 -6 -6 -7 -7 -7 -7 -7 -7 -7 -7 -7 -7 -6 -6 -6 -6 -6 -6 -6 -7 -7 -7 -7 -7 -7
-7 -7 -7 -7 -7 -6 -6 -6 -7 -7 -7 -7 -8 -8 -7 -7 -7 -7 -7 -7 -7 -7 -7 -6 -6 -6 -6 -6 -6 -7 -7 -7 -7 -7 -6 -6 -6 -6 -6 -6 -6 -7 -7 -7 -7 -7 -7 -7 -7 -7 -7 -7 -7 -7 -7 -7 -7 -7 -7 -7 -7 -7 -7
-7 -7 -7 -7 -7 -6 -6 -6 -7 -7 -7 -8 -8 -8 -7 -7 -7 -7 -7 -7 -7 -7 -7 -7 -7 -7 -7 -6 -6 -6 -6 -6 -7 -7 -7 -7 -7 -7 -6 -6 -6 -7 -7 -7 -7 -7 -7 -7 -7 -7 -7 -7 -7 -7 -7 -7 -7 -7 -7 -7 -7 -7 -7
-7 -7 -7 -7 -7 -7 -7 -7 -7 -7 -7 -7 -7 -7 -7 -7 -7 -7 -7 -7 -7 -7 -7 -7 -7 -7 -7 -7 -7 -7 -7 -7 -7 -7 -7 -7 -7 -7 -7 -7 -7 -7 -7 -7 -7 -7 -7 -7 -7 -7 -7 -7 -7 -7 -7 -7 -7 -7 -7 -7 -7 -7 -7
-7 -7 -7 -7 -7 -7 -7 -7 -7 -7 -7 -7 -7 -7 -7 -7 -7 -7 -7 -7 -7 -7 -7 -7 -7 -7 -7 -7 -7 -7 -7 -7 -7 -7 -7 -7 -7 -7 -7 -7 -7 -7 -7 -7 -7 -7 -7 -7 -7 -7 -7 -7 -7 -7 -7 -7 -7 -7 -7 -7 -7 -7 -7
-7 -7 -7 -7 -7 -7 -7 -7 -7 -8 -7 -7 -7 -7 -7 -7 -7 -7 -7 -7 -8 -8 -8 -8 -7 -7 -7 -7 -7 -7 -7 -7 -7 -7 -7 -7 -7 -7 -7 -7 -7 -7 -7 -7 -7 -7 -7 -7 -7 -7 -7 -7 -7 -7 -7 -7 -7 -7 -7 -7 -7 -7 -7
-7 -7 -7 -7 -7 -7 -7 -7 -8 -8 -7 -7 -7 -7 -7 -7 -7 -7 -7 -7 -7 -8 -8 -8 -7 -7 -7 -7 -7 -7 -7 -7 -7 -7 -7 -7 -7 -7 -7 -7 -7 -7 -7 -7 -7 -7 -7 -7 -7 -7 -7 -7 -7 -7 -7 -7 -7 -7 -7 -7 -7 -7 -7
-7 -7 -7 -7 -7 -7 -7 -7 -7 -7 -7 -7 -7 -7 -7 -7 -7 -7 -7 -7 -7 -7 -7 -7 -7 -7 -7 -7 -7 -7 -7 -7 -7 -7 -7 -7 -7 -7 -7 -7 -7 -7 -7 -7 -7 -7 -7 -7 -7 -7 -7 -7 -7 -7 -7 -7 -7 -7 -7 -7 -7 -7 -7
-7 -7 -7 -7 -7 -7 -7 -7 -7 -8 -7 -7 -7 -7 -7 -7 -7 -7 -7 -7 -7 -7 -6 -7 -7 -7 -7 -7 -7 -7 -7 -7 -7 -7 -7 -7 -7 -7 -7 -7 -7 -7 -7 -7 -7 -7 -7 -7 -7 -7 -7 -7 -7 -7 -7 -7 -7 -7 -7 -7 -7 -7 -7
-8 -7 -7 -7 -7 -7 -7 -7 -7 -7 -7 -7 -6 -6 -7 -7 -7 -7 -7 -7 -7 -7 -7 -7 -7 -7 -7 -7 -7 -7 -7 -7 -7 -7 -7 -7 -7 -7 -7 -7 -7 -7 -7 -7 -7 -7 -7 -7 -7 -7 -7 -7 -7 -7 -7 -7 -7 -7 -7 -7 -7 -7 -7
-7 -7 -7 -7 -7 -7 -7 -7 -7 -6 -6 -7 -6 -6 -6 -6 -7 -7 -7 -7 -7 -7 -7 -7 -7 -6 -6 -6 -7 -7 -7 -7 -7 -7 -7 -7 -7 -7 -7 -7 -7 -7 -7 -7 -7 -7 -7 -7 -7 -7 -7 -7 -7 -7 -7 -7 -7 -7 -7 -7 -7 -7 -7
-8 -7 -7 -7 -7 -7 -7 -7 -7 -7 -7 -7 -7 -7 -6 -6 -6 -7 -7 -7 -7 -7 -7 -7 -6 -6 -6 -6 -6 -6 -7 -7 -7 -7 -7 -7 -7 -7 -7 -7 -7 -7 -7 -7 -7 -7 -7 -7 -7 -7 -7 -7 -7 -7 -7 -7 -7 -7 -7 -7 -7 -7 -7
-8 -8 -8 -7 -7 -7 -7 -7 -7 -7 -8 -7 -7 -7 -7 -7 -7 -7 -7 -7 -7 -7 -7 -7 -7 -6 -6 -6 -6 -6 -6 -7 -7 -7 -7 -7 -7 -7 -7 -8 -8 -7 -7 -7 -7 -7 -6 -7 -7 -7 -7 -7 -7 -7 -7 -7 -7 -7 -7 -7 -7 -7 -7
-8 -8 -8 -8 -8 -8 -8 -8 -8 -8 -8 -7 -7 -7 -7 -7 -7 -7 -7 -7 -6 -6 -6 -7 -7 -7 -7 -6 -6 -7 -6 -6 -6 -6 -7 -7 -7 -7 -7 -7 -7 -7 -7 -7 -7 -7 -7 -7 -7 -7 -7 -7 -7 -7 -7 -7 -7 -7 -7 -7 -7 -7 -7
-8 -8 -8 -8 -8 -8 -8 -8 -8 -8 -7 -7 -7 -7 -7 -7 -6 -7 -7 -7 -6 -6 -6 -6 -6 -6 -6 -6 -6 -7 -7 -6 -6 -6 -6 -7 -7 -7 -7 -7 -7 -7 -7 -8 -8 -7 -7 -7 -7 -7 -7 -7 -7 -7 -7 -7 -7 -7 -7 -7 -7 -7 -7
-9 -8 -8 -8 -8 -8 -8 -8 -8 -7 -7 -7 -7 -7 -7 -7 -6 -6 -7 -7 -6 -6 -6 -6 -6 -6 -7 -7 -7 -7 -7 -7 -6 -6 -7 -7 -7 -7 -7 -7 -7 -7 -7 -7 -8 -8 -8 -7 -7 -7 -8 -8 -7 -7 -7 -7 -7 -7 -7 -7 -7 -7 -7
-9 -9 -9 -8 -8 -8 -8 -8 -8 -7 -7 -7 -7 -7 -7 -6 -6 -6 -6 -6 -6 -6 -6 -6 -6 -7 -7 -7 -7 -7 -7 -7 -7 -7 -7 -7 -7 -7 -7 -7 -7 -6 -7 -7 -8 -8 -8 -7 -7 -7 -7 -8 -8 -8 -8 -7 -7 -7 -7 -7 -7 -7 -7
-9 -9 -9 -9 -8 -8 -8 -8 -8 -8 -8 -7 -7 -7 -7 -6 -6 -6 -6 -6 -6 -6 -6 -6 -6 -7 -7 -7 -7 -7 -7 -7 -7 -7 -7 -7 -7 -7 -7 -7 -7 -7 -7 -7 -7 -7 -7 -8 -7 -7 -7 -7 -7 -8 -8 -8 -8 -8 -7 -7 -7 -7 -7
-9 -9 -9 -9 -9 -8 -8 -8 -8 -8 -8 -8 -8 -7 -7 -7 -6 -6 -6 -6 -6 -6 -6 -6 -6 -7 -7 -7 -7 -7 -7 -7 -7 -7 -7 -7 -7 -7 -7 -7 -7 -7 -7 -7 -7 -7 -7 -8 -8 -7 -7 -7 -7 -7 -7 -8 -8 -8 -8 -7 -7 -7 -7
-10 -10 -10 -9 -9 -9 -8 -8 -8 -8 -8 -8 -8 -7 -7 -7 -7 -7 -7 -7 -7 -7 -6 -6 -6 -6 -7 -7 -7 -7 -7 -7 -7 -7 -7 -7 -7 -7 -7 -7 -7 -7 -7 -7 -7 -7 -8 -8 -8 -7 -7 -7 -7 -7 -8 -7 -7 -8 -8 -8 -7 -7 -7
-10 -10 -10 -10 -9 -9 -8 -8 -8 -8 -8 -8 -8 -7 -7 -7 -7 -7 -7 -7 -7 -7 -7 -7 -7 -6 -7 -7 -7 -7 -7 -7 -7 -7 -7 -7 -7 -7 -7 -7 -7 -7 -7 -7 -7 -7 -8 -8 -8 -8 -7 -7 -7 -8 -8 -8 -8 -8 -8 -8 -8 -7 -7
-10 -10 -10 -10 -9 -9 -9 -8 -8 -8 -8 -8 -8 -7 -7 -7 -7 -7 -7 -7 -7 -7 -7 -7 -7 -7 -7 -7 -7 -7 -7 -7 -7 -7 -7 -7 -7 -7 -8 -8 -7 -7 -7 -7 -7 -8 -8 -8 -8 -8 -8 -8 -8 -8 -8 -8 -8 -8 -8 -7 -7 -8 -8
-10 -10 -10 -10 -10 -9 -9 -8 -8 -8 -8 -7 -7 -7 -7 -7 -7 -7 -7 -7 -7 -7 -7 -7 -7 -7 -7 -7 -7 -7 -7 -7 -7 -7 -7 -7 -7 -7 -8 -8 -8 -7 -8 -8 -8 -8 -8 -8 -8 -8 -8 -8 -8 -8 -8 -8 -8 -8 -8 -8 -7 -7 -7
-11 -10 -10 -10 -10 -10 -10 -9 -9 -8 -8 -8 -8 -8 -7 -7 -7 -7 -7 -7 -7 -7 -7 -7 -7 -7 -7 -7 -7 -7 -7 -7 -7 -7 -7 -7 -7 -7 -7 -7 -7 -7 -8 -8 -8 -8 -8 -8 -8 -8 -7 -7 -7 -8 -8 -8 -8 -8 -8 -8 -8 -8 -7
-11 -10 -10 -10 -10 -10 -10 -10 -10 -9 -9 -9 -8 -8 -8 -7 -7 -8 -7 -7 -7 -7 -7 -7 -8 -8 -7 -7 -7 -7 -7 -7 -7 -7 -7 -7 -7 -7 -7 -7 -7 -8 -8 -8 -8 -8 -8 -8 -8 -8 -7 -7 -7 -8 -8 -8 -8 -8 -8 -8 -8 -8 -8
-11 -10 -10 -10 -10 -10 -10 -11 -10 -10 -9 -9 -9 -9 -8 -8 -8 -8 -8 -7 -8 -8 -8 -8 -8 -8 -8 -8 -8 -8 -8 -8 -8 -8 -8 -8 -8 -8 -8 -8 -8 -8 -8 -8 -8 -8 -8 -8 -8 -8 -7 -7 -8 -8 -8 -8 -8 -8 -8 -8 -8 -8 -8
-11 -10 -10 -10 -10 -10 -10 -11 -10 -10 -10 -10 -10 -9 -9 -8 -8 -8 -8 -8 -8 -8 -8 -8 -8 -8 -8 -8 -8 -8 -8 -8 -8 -8 -8 -8 -8 -8 -8 -8 -9 -9 -8 -8 -8 -8 -8 -8 -8 -8 -7 -7 -8 -8 -8 -9 -9 -8 -8 -8 -8 -8 -8
-11 -11 -11 -11 -11 -11 -11 -10 -10 -10 -10 -10 -10 -10 -9 -9 -9 -9 -9 -9 -8 -8 -8 -8 -8 -8 -8 -8 -8 -8 -8 -8 -8 -8 -8 -8 -8 -8 -9 -9 -9 -9 -9 -9 -9 -9 -9 -9 -9 -8 -8 -8 -8 -8 -8 -8 -9 -9 -9 -8 -8 -8 -8
-11 -11 -11 -11 -11 -11 -11 -10 -10 -10 -10 -10 -10 -10 -10 -10 -9 -9 -9 -9 -9 -9 -8 -9 -9 -9 -9 -9 -8 -8 -8 -8 -8 -8 -8 -8 -8 -9 -9 -9 -9 -9 -9 -9 -9 -9 -9 -9 -9 -9 -9 -8 -8 -8 -8 -8 -9 -9 -9 -9 -9 -9 -9
-11 -11 -11 -11 -11 -11 -11 -10 -10 -10 -10 -10 -10 -10 -10 -10 -10 -10 -9 -9 -9 -9 -9 -9 -9 -10 -9 -9 -9 -9 -9 -9 -9 -9 -9 -9 -9 -9 -9 -9 -9 -9 -9 -9 -9 -9 -9 -9 -9 -9 -9 -9 -9 -9 -9 -9 -9 -9 -9 -9 -9 -9 -9
-12 -11 -11 -11 -11 -11 -11 -11 -11 -11 -11 -10 -10 -10 -10 -10 -10 -10 -10 -10 -10 -10 -10 -10 -10 -10 -10 -9 -9 -9 -9 -9 -9 -9 -9 -9 -10 -9 -9 -9 -9 -9 -9 -9 -9 -9 -9 -9 -9 -9 -9 -9 -9 -9 -9 -9 -9 -9 -9 -9 -9 -9 -9
-12 -12 -11 -11 -12 -12 -12 -11 -11 -11 -11 -11 -11 -11 -11 -10 -10 -10 -10 -10 -10 -10 -10 -10 -10 -10 -10 -10 -10 -10 -10 -10 -10 -10 -10 -10 -10 -10 -10 -10 -10 -10 -10 -10 -9 -9 -9 -10 -10 -10 -10 -10 -9 -9 -9 -9 -9 -9 -10 -9 -9 -9 -9
-12 -12 -12 -12 -12 -12 -12 -12 -12 -12 -12 -11 -11 -11 -11 -11 -11 -11 -10 -10 -10 -10 -10 -10 -10 -10 -10 -10 -10 -10 -10 -10 -10 -10 -10 -10 -10 -10 -10 -10 -10 -10 -10 -10 -10 -10 -10 -10 -10 -10 -10 -10 -10 -10 -10 -10 -10 -10 -10 -10 -10 -10 -9
-13 -12 -12 -12 -12 -12 -12 -12 -12 -12 -12 -12 -12 -11 -11 -11 -11 -11 -11 -11 -11 -11 -11 -11 -11 -11 -11 -11 -11 -11 -11 -11 -11 -11 -11 -11 -11 -10 -10 -10 -10 -10 -10 -11 -11 -10 -10 -10 -10 -10 -10 -10 -10 -10 -10 -10 -10 -10 -10 -10 -10 -10 -10
-13 -13 -13 -13 -13 -13 -12 -12 -12 -12 -12 -12 -12 -12 -12 -12 -12 -11 -11 -12 -11 -11 -11 -11 -12 -12 -12 -11 -11 -11 -11 -11 -11 -11 -11 -11 -11 -11 -11 -11 -11 -11 -11 -11 -11 -11 -11 -10 -10 -10 -10 -10 -10 -10 -10 -10 -10 -10 -10 -10 -11 -11 -10
Height
5881 5885 5887 5889 5892 5894 5896 5898 5900 5901 5902 5904 5905 5906 5907 5909 5910 5912 5913 5915 5916 5917 5918 5920 5921 5922 5923 5924 5925 5926 5927 5928 5929 5930 5931 5931 5932 5933 5934 5935 5935 5936 5936 5937 5937 5937 5938 5938 5939 5939 5940 5940 5941 5941 5942 5942 5942 5942 5943 5943 5943 5944 5944
5878 5882 5886 5887 5890 5892 5895 5897 5898 5900 5901 5902 5904 5905 5906 5908 5909 5911 5912 5914 5915 5916 5917 5918 5920 5921 5922 5923 5925 5926 5927 5928 5929 5929 5930 5931 5931 5932 5934 5934 5935 5936 5936 5937 5937 5937 5938 5938 5939 5939 5940 5940 5941 5941 5942 5942 5942 5942 5943 5943 5943 5944 5944
5879 5881 5884 5886 5888 5891 5893 5895 5897 5899 5899 5901 5903 5904 5905 5906 5908 5909 5911 5912 5914 5915 5916 5917 5919 5920 5921 5923 5924 5925 5926 5927 5928 5928 5929 5930 5931 5932 5933 5933 5934 5935 5936 5936 5937 5937 5938 5938 5939 5939 5939 5940 5940 5941 5941 5942 5942 5942 5943 5943 5943 5944 5944
5879 5881 5883 5884 5886 5888 5890 5893 5896 5897 5898 5899 5901 5903 5904 5905 5906 5907 5909 5911 5912 5914 5915 5916 5917 5918 5920 5921 5922 5923 5924 5925 5926 5927 5928 5929 5930 5931 5931 5932 5933 5934 5935 5936 5936 5937 5938 5938 5938 5939 5939 5940 5940 5940 5941 5941 5942 5942 5942 5942 5943 5943 5943
5877 5879 5880 5882 5884 5886 5889 5891 5894 5895 5896 5898 5900 5901 5902 5903 5904 5906 5907 5909 5910 5912 5913 5914 5915 5916 5918 5919 5920 5922 5923 5924 5925 5926 5927 5928 5929 5929 5930 5931 5932 5933 5934 5935 5936 5936 5937 5938 5938 5939 5939 5939 5940 5940 5940 5941 5941 5941 5942 5942 5942 5943 5943
5875 5877 5878 5880 5882 5885 5887 5889 5892 5894 5895 5896 5898 5899 5900 5901 5902 5904 5905 5907 5908 5910 5911 5913 5915 5916 5916 5917 5919 5920 5921 5923 5924 5925 5926 5927 5928 5929 5929 5930 5931 5932 5933 5934 5934 5935 5936 5937 5938 5938 5939 5939 5939 5940 5940 5940 5940 5941 5941 5941 5942 5942 5942
5874 5875 5876 5878 5881 5884 5886 5888 5890 5892 5893 5894 5896 5897 5898 5899 5900 5902 5903 5905 5906 5907 5909 5912 5913 5914 5915 5916 5917 5919 5920 5921 5922 5923 5924 5925 5926 5927 5928 5929 5930 5930 5931 5932 5933 5934 5935 5936 5937 5937 5938 5938 5938 5939 5939 5939 5939 5940 5940 5940 5941 5941 5942
5873 5874 5875 5877 5879 5882 5884 5887 5889 5890 5892 5893 5894 5896 5897 5898 5899 5899 5901 5902 5903 5905 5907 5909 5911 5912 5913 5914 5916 5917 5918 5919 5920 5922 5923 5924 5925 5926 5927 5928 5929 5929 5930 5931 5932 5933 5934 5935 5936 5936 5937 5937 5938 5938 5938 5938 5938 5939 5939 5939 5940 5940 5941
5873 5875 5876 5877 5879 5880 5883 5885 5887 5889 5890 5892 5893 5895 5896 5897 5898 5898 5899 5900 5902 5903 5905 5907 5908 5909 5911 5912 5914 5915 5916 5917 5919 5920 5922 5922 5923 5925 5926 5927 5927 5928 5929 5929 5930 5931 5932 5933 5934 5935 5936 5936 5936 5937 5937 5937 5937 5937 5938 5938 5939 5939 5940
5872 5874 5876 5878 5879 5880 5882 5884 5886 5888 5889 5891 5892 5893 5894 5895 5897 5897 5898 5899 5900 5901 5902 5903 5904 5906 5908 5909 5911 5913 5914 5916 5917 5918 5920 5920 5921 5922 5923 5925 5926 5926 5927 5927 5928 5929 5930 5931 5932 5933 5933 5934 5935 5935 5935 5936 5936 5936 5936 5937 5937 5938 5938
5872 5873 5875 5877 5878 5879 5881 5882 5884 5885 5887 5888 5889 5891 5892 5894 5896 5897 5898 5899 5900 5901 5901 5901 5902 5904 5905 5907 5908 5910 5913 5914 5915 5916 5917 5918 5919 5919 5920 5922 5923 5923 5924 5925 5926 5927 5927 5928 5929 5930 5931 5932 5932 5933 5933 5934 5934 5935 5935 5935 5936 5936 5937
5870 5872 5873 5875 5876 5877 5878 5879 5880 5881 5882 5884 5886 5888 5889 5891 5893 5896 5898 5899 5900 5901 5901 5901 5902 5903 5905 5906 5907 5909 5910 5912 5913 5913 5914 5915 5915 5916 5917 5918 5919 5920 5921 5922 5923 5924 5925 5925 5926 5927 5928 5929 5930 5931 5932 5932 5932 5933 5933 5934 5934 5935 5935
5868 5869 5871 5872 5875 5877 5877 5877 5876 5875 5877 5879 5882 5884 5885 5887 5889 5891 5894 5895 5896 5897 5898 5899 5901 5902 5902 5903 5905 5907 5908 5909 5910 5911 5911 5911 5912 5913 5914 5914 5915 5916 5917 5918 5920 5921 5921 5922 5923 5924 5925 5927 5928 5929 5929 5930 5930 5931 5931 5932 5933 5933 5934
5867 5867 5868 5870 5872 5874 5875 5874 5872 5871 5873 5875 5877 5880 5882 5883 5885 5887 5889 5891 5892 5893 5894 5896 5897 5898 5899 5900 5902 5904 5905 5907 5909 5909 5910 5910 5911 5912 5913 5914 5914 5914 5915 5915 5917 5917 5918 5919 5919 5921 5922 5924 5925 5926 5927 5928 5928 5928 5929 5930 5931 5931 5932
5865 5866 5866 5868 5869 5870 5870 5869 5868 5871 5874 5874 5875 5876 5878 5879 5881 5883 5885 5887 5889 5890 5890 5892 5894 5895 5896 5897 5899 5900 5902 5904 5906 5907 5909 5910 5911 5912 5913 5913 5913 5913 5914 5914 5915 5915 5915 5916 5917 5918 5919 5920 5922 5923 5924 5925 5925 5926 5927 5928 5928 5929 5930
5863 5863 5864 5866 5867 5868 5868 5867 5867 5870 5873 5872 5872 5874 5875 5876 5878 5880 5882 5883 5884 5885 5886 5888 5889 5891 5893 5894 5896 5897 5899 5900 5902 5904 5905 5907 5908 5908 5909 5909 5910 5911 5912 5913 5913 5913 5913 5914 5915 5916 5916 5918 5919 5921 5922 5922 5923 5923 5924 5925 5926 5927 5928
5860 5861 5862 5864 5865 5866 5866 5866 5867 5869 5870 5869 5870 5871 5873 5874 5875 5877 5879 5879 5881 5882 5883 5883 5885 5887 5889 5890 5892 5893 5895 5897 5898 5900 5901 5903 5903 5904 5905 5906 5907 5908 5909 5910 5911 5912 5912 5912 5913 5914 5914 5915 5916 5918 5918 5919 5920 5921 5921 5922 5923 5924 5925
5857 5858 5860 5861 5863 5865 5865 5865 5865 5866 5867 5867 5868 5869 5870 5871 5872 5874 5876 5876 5877 5878 5879 5880 5881 5882 5883 5885 5888 5890 5892 5893 5894 5895 5897 5899 5900 5900 5902 5904 5904 5904 5904 5905 5906 5908 5909 5910 5910 5911 5912 5913 5913 5914 5915 5916 5917 5918 5919 5920 5920 5921 5922
5853 5855 5857 5859 5861 5863 5864 5863 5863 5863 5863 5864 5866 5867 5867 5868 5869 5871 5872 5873 5873 5873 5874 5876 5878 5878 5878 5881 5884 5886 5888 5890 5891 5893 5894 5896 5898 5898 5899 5901 5901 5900 5900 5900 5901 5903 5905 5907 5908 5908 5909 5910 5911 5912 5912 5913 5914 5916 5916 5917 5918 5919 5919
5850 5851 5853 5855 5858 5860 5861 5861 5861 5861 5861 5862 5863 5865 5865 5865 5865 5867 5867 5868 5869 5870 5870 5872 5875 5875 5876 5878 5880 5881 5883 5886 5888 5890 5892 5894 5895 5895 5896 5896 5896 5896 5896 5898 5899 5900 5901 5903 5905 5905 5906 5906 5907 5908 5910 5910 5911 5912 5913 5914 5915 5916 5916
5847 5848 5850 5852 5855 5857 5858 5859 5859 5859 5859 5860 5861 5862 5862 5862 5861 5862 5863 5863 5864 5865 5866 5868 5870 5871 5873 5875 5876 5877 5878 5881 5883 5885 5887 5889 5889 5890 5891 5892 5892 5893 5894 5896 5898 5899 5899 5901 5903 5903 5903 5902 5903 5903 5905 5906 5907 5908 5909 5910 5911 5912 5913
5845 5846 5847 5849 5852 5854 5855 5855 5856 5856 5857 5858 5859 5860 5860 5859 5859 5859 5859 5859 5860 5861 5862 5864 5865 5866 5868 5870 5871 5872 5873 5875 5877 5880 5882 5883 5884 5885 5886 5887 5888 5889 5890 5893 5895 5896 5897 5899 5899 5899 5899 5900 5900 5900 5901 5902 5903 5905 5906 5907 5907 5908 5909
5843 5843 5845 5846 5848 5850 5851 5852 5852 5853 5854 5855 5857 5857 5858 5857 5856 5856 5856 5856 5856 5857 5858 5860 5861 5862 5863 5864 5865 5866 5868 5869 5872 5874 5876 5878 5880 5881 5882 5883 5884 5886 5887 5890 5891 5893 5894 5895 5895 5896 5896 5897 5898 5898 5898 5899 5900 5901 5902 5903 5903 5904 5905
5840 5841 5842 5844 5845 5846 5848 5848 5848 5849 5850 5852 5853 5854 5855 5854 5854 5854 5854 5854 5854 5855 5855 5856 5857 5858 5859 5860 5860 5861 5863 5865 5867 5869 5872 5874 5875 5876 5878 5879 5881 5882 5884 5887 5888 5889 5890 5891 5892 5892 5893 5893 5894 5895 5896 5897 5897 5897 5898 5899 5900 5900 5901
5837 5838 5840 5841 5841 5842 5844 5844 5845 5845 5847 5849 5850 5851 5852 5853 5853 5852 5851 5851 5852 5853 5853 5854 5855 5856 5858 5857 5858 5859 5860 5862 5863 5864 5867 5870 5871 5872 5874 5876 5877 5879 5880 5883 5884 5885 5886 5888 5889 5888 5889 5889 5890 5891 5893 5894 5894 5894 5895 5896 5896 5897 5898
5835 5836 5837 5838 5838 5839 5840 5841 5841 5842 5843 5845 5846 5848 5849 5850 5852 5851 5849 5850 5850 5850 5850 5851 5852 5854 5855 5856 5856 5856 5857 5859 5859 5860 5862 5864 5866 5867 5869 5871 5873 5875 5876 5878 5880 5881 5881 5883 5884 5884 5884 5885 5886 5887 5888 5889 5890 5891 5891 5892 5893 5893 5894
5833 5834 5835 5835 5836 5836 5837 5837 5838 5839 5840 5841 5842 5844 5845 5846 5848 5848 5848 5849 5849 5847 5847 5848 5850 5851 5853 5853 5853 5853 5854 5855 5856 5856 5858 5859 5861 5862 5864 5866 5868 5870 5872 5874 5876 5877 5878 5879 5880 5880 5880 5880 5880 5882 5884 5885 5886 5886 5887 5888 5889 5890 5890
5830 5832 5833 5833 5833 5834 5834 5835 5836 5837 5837 5837 5839 5840 5841 5842 5843 5845 5846 5847 5847 5846 5845 5845 5847 5849 5849 5850 5851 5851 5852 5853 5853 5854 5855 5856 5857 5857 5858 5860 5863 5865 5867 5869 5871 5872 5874 5876 5876 5877 5877 5876 5875 5877 5879 5881 5883 5883 5883 5884 5885 5886 5886
5828 5829 5830 5831 5831 5831 5832 5833 5834 5835 5834 5834 5835 5836 5838 5839 5840 5841 5843 5844 5843 5843 5843 5843 5844 5845 5846 5847 5848 5848 5849 5850 5851 5851 5852 5853 5854 5854 5855 5857 5859 5860 5862 5865 5867 5869 5870 5872 5872 5873 5874 5874 5873 5874 5875 5876 5878 5879 5880 5880 5881 5882 5883
5825 5826 5827 5827 5828 5829 5829 5830 5832 5833 5833 5832 5832 5833 5835 5835 5836 5838 5840 5840 5840 5840 5841 5841 5842 5843 5844 5845 5846 5846 5846 5847 5848 5849 5850 5851 5852 5854 5855 5857 5857 5858 5859 5861 5863 5865 5866 5868 5869 5870 5871 5872 5872 5872 5873 5873 5873 5875 5876 5876 5877 5878 5879
5821 5822 5823 5823 5824 5825 5826 5827 5828 5830 5830 5830 5831 5831 5832 5832 5833 5834 5836 5836 5836 5837 5837 5837 5838 5840 5841 5843 5843 5843 5844 5845 5846 5846 5848 5849 5850 5852 5853 5855 5856 5856 5857 5858 5860 5861 5862 5864 5866 5867 5868 5869 5869 5870 5871 5870 5870 5871 5872 5872 5873 5874 5875
5817 5818 5818 5819 5820 5821 5822 5822 5824 5825 5827 5828 5828 5829 5829 5829 5830 5832 5833 5833 5833 5834 5835 5835 5836 5837 5839 5840 5840 5840 5841 5842 5843 5844 5846 5847 5848 5849 5850 5852 5854 5855 5855 5856 5857 5858 5860 5861 5862 5863 5864 5865 5866 5866 5867 5867 5867 5867 5868 5869 5869 5869 5870
5813 5814 5814 5815 5816 5817 5818 5818 5819 5820 5821 5823 5824 5825 5826 5826 5827 5828 5830 5830 5830 5831 5832 5832 5833 5834 5835 5837 5838 5838 5839 5840 5841 5842 5843 5844 5845 5846 5848 5849 5851 5852 5852 5853 5854 5855 5856 5858 5859 5860 5860 5861 5862 5863 5863 5864 5864 5864 5864 5865 5865 5865 5866
5809 5810 5810 5811 5812 5813 5813 5814 5814 5815 5816 5818 5820 5821 5822 5822 5823 5824 5825 5826 5827 5827 5828 5829 5830 5831 5833 5834 5835 5836 5836 5837 5838 5839 5840 5841 5842 5843 5845 5846 5847 5848 5848 5849 5850 5851 5852 5853 5854 5855 5856 5857 5858 5858 5859 5859 5860 5860 5860 5861 5861 5861 5862
5806 5806 5807 5807 5808 5809 5809 5810 5810 5811 5813 5814 5815 5816 5817 5818 5819 5820 5821 5822 5823 5823 5824 5825 5826 5827 5829 5830 5832 5833 5833 5834 5835 5836 5837 5838 5839 5840 5841 5842 5842 5843 5844 5845 5846 5847 5848 5849 5850 5851 5852 5853 5853 5854 5854 5855 5855 5856 5856 5856 5856 5857 5857
5803 5803 5804 5804 5805 5806 5806 5807 5807 5808 5809 5810 5811 5812 5813 5814 5815 5816 5817 5818 5818 5819 5820 5822 5823 5824 5825 5826 5827 5829 5830 5831 5832 5833 5834 5834 5835 5836 5837 5837 5838 5839 5840 5840 5841 5843 5844 5845 5846 5847 5848 5848 5849 5849 5850 5850 5850 5851 5851 5851 5851 5851 5852
5801 5801 5802 5802 5802 5803 5803 5804 5804 5805 5806 5807 5807 5808 5809 5810 5811 5812 5813 5814 5814 5815 5816 5817 5818 5820 5821 5822 5823 5824 5825 5827 5828 5829 5830 5831 5831 5832 5832 5833 5834 5835 5835 5836 5837 5838 5839 5840 5841 5841 5842 5843 5844 5844 5845 5845 5845 5846 5846 5846 5846 5846 5846
5799 5799 5800 5800 5800 5800 5801 5801 5802 5802 5803 5803 5804 5805 5806 5807 5807 5808 5809 5809 5810 5811 5812 5813 5814 5815 5816 5817 5818 5819 5820 5821 5822 5824 5825 5826 5827 5827 5828 5829 5829 5829 5830 5831 5831 5832 5833 5834 5835 5835 5836 5837 5838 5839 5839 5839 5840 5840 5840 5840 5840 5840 5840
Wind_Speed
32 29 26 26 24 21 21 21 21 21 19 20 20 20 20 20 19 18 18 19 19 19 18 18 17 16 16 16 15 14 14 14 13 12 11 10 9 8 8 7 6 6 5 6 7 7 7 6 6 6 7 7 8 8 8 8 8 7 7 6 6 5 5
33 30 27 26 23 20 20 21 22 21 20 21 22 22 21 20 20 20 20 20 20 20 20 19 19 18 18 17 16 16 15 15 14 13 12 12 11 10 8 7 7 6 6 6 6 7 7 7 7 6 6 6 7 8 8 8 8 8 8 7 7 6 6
31 30 29 27 24 22 21 21 22 21 20 21 22 22 21 21 21 21 22 22 21 21 20 20 20 20 19 19 18 17 16 16 15 14 14 13 12 10 9 8 7 7 7 7 6 5 6 6 7 7 7 6 6 7 7 8 8 8 8 8 8 7 7
25 29 30 30 27 25 23 23 23 21 20 20 21 21 22 22 22 22 22 22 22 22 22 22 21 21 21 21 20 19 18 17 17 16 15 14 12 11 10 9 8 8 7 6 6 5 5 6 6 6 6 6 6 6 6 7 7 7 7 7 7 7 7
19 22 28 33 31 27 25 24 23 22 21 20 21 21 22 23 23 23 22 22 22 23 23 23 23 22 21 21 21 20 20 19 18 17 16 15 14 13 12 11 10 9 8 7 6 6 6 5 5 5 5 5 6 6 6 6 6 6 6 7 7 6 6
18 18 22 30 33 29 26 25 24 23 22 21 21 22 22 22 22 22 23 22 23 23 23 23 22 22 22 22 21 21 21 20 19 18 17 16 15 15 14 12 11 10 10 9 8 7 7 7 6 6 5 5 5 6 6 7 7 7 7 6 6 6 6
16 17 17 24 31 31 29 27 25 25 25 24 24 23 22 21 21 22 23 23 23 23 23 22 23 23 23 22 22 22 22 21 20 20 19 17 17 16 15 14 14 13 11 11 10 9 9 8 7 7 7 6 6 6 6 7 7 8 8 7 7 7 6
14 17 19 21 26 29 29 28 26 25 25 26 25 24 23 22 22 22 22 23 23 23 23 23 24 24 24 24 23 23 23 23 22 22 21 19 19 18 17 16 16 15 14 13 12 11 10 10 9 9 9 8 7 7 7 7 8 8 8 8 8 8 7
14 16 19 22 24 25 26 27 26 25 25 25 25 25 25 24 23 22 22 23 24 23 23 24 25 26 26 25 25 25 25 24 24 23 22 22 21 20 19 19 18 17 16 15 14 13 12 12 11 11 11 10 9 9 9 9 9 9 9 9 9 9 8
16 16 17 19 22 24 25 25 26 25 24 25 25 26 27 26 25 24 23 24 25 25 25 26 27 28 28 27 27 27 26 25 25 24 24 24 24 23 22 21 20 20 18 17 16 16 15 14 13 14 13 12 11 11 11 10 10 10 10 9 9 9 9
15 16 18 19 21 23 24 24 24 25 25 26 27 27 28 27 26 24 23 23 23 25 26 27 28 29 29 29 28 28 27 27 26 26 26 26 26 26 25 24 23 23 21 20 20 19 17 16 16 16 16 14 13 13 13 12 12 12 11 11 10 10 10
15 15 17 19 21 22 24 25 27 28 28 28 28 27 28 27 25 23 22 22 23 24 25 26 26 27 27 28 28 28 28 28 28 28 28 29 28 28 27 26 26 25 24 23 23 21 20 19 19 19 18 17 16 15 15 14 13 13 13 12 12 11 11
16 16 17 17 18 19 22 25 28 31 32 31 29 28 28 28 27 25 24 26 27 29 28 26 25 25 27 27 28 28 29 30 30 31 31 31 31 31 29 28 28 27 26 25 24 23 22 21 21 21 20 19 18 18 17 16 15 15 15 14 14 13 12
15 16 18 18 18 18 21 24 28 30 31 30 30 30 31 29 28 27 27 29 30 32 33 31 28 27 28 28 28 29 30 31 31 32 32 31 31 30 29 29 28 28 27 26 25 25 24 24 23 23 22 21 21 21 20 19 19 18 17 16 16 15 14
16 17 18 19 19 20 22 26 29 27 25 25 27 30 33 33 31 29 29 30 31 33 34 34 33 31 28 27 28 28 29 30 31 32 32 31 29 28 27 27 28 28 28 27 27 26 26 25 25 24 23 23 22 23 22 22 21 21 20 19 18 17 15
19 20 20 19 20 21 22 26 26 23 22 24 25 26 30 32 32 32 32 32 31 32 34 36 37 35 31 28 28 28 28 29 30 31 32 31 30 29 29 28 27 27 27 27 28 28 27 26 25 25 24 23 22 23 23 24 24 23 23 22 21 19 18
23 22 22 21 20 21 22 23 23 20 20 23 24 24 26 29 31 32 33 33 32 32 34 36 38 39 36 33 31 31 30 29 30 31 32 31 31 32 31 30 29 28 28 28 28 29 28 26 25 25 25 24 23 23 24 25 25 25 24 24 23 23 22
27 26 25 24 22 20 21 22 22 22 22 23 24 24 24 26 29 30 30 33 35 35 36 36 37 40 40 36 33 33 33 31 30 31 31 30 31 32 32 31 31 30 30 29 28 29 29 28 26 25 25 25 25 25 25 25 24 24 24 25 25 25 24
31 29 28 26 24 21 22 24 24 23 24 24 23 23 23 24 26 28 29 32 36 38 38 37 39 41 41 37 34 34 35 35 33 31 30 29 29 31 32 32 33 34 33 31 29 28 28 29 28 25 24 24 25 26 26 25 24 24 25 25 26 26 25
32 31 31 29 27 24 23 24 25 25 24 24 23 23 23 24 25 27 29 32 35 38 38 37 39 42 41 38 35 35 36 37 35 32 30 29 29 32 33 34 35 36 34 32 29 28 28 28 28 26 25 25 25 25 25 25 25 26 26 26 26 26 26
32 32 32 31 30 28 26 24 25 25 25 25 25 24 24 24 25 26 28 30 34 38 40 38 38 40 41 39 37 36 36 37 37 36 33 32 32 34 36 36 36 36 35 32 29 28 28 28 28 27 26 25 25 24 24 24 25 26 25 25 25 26 26
33 32 32 32 31 31 30 27 26 26 26 25 25 26 26 26 26 25 26 28 31 36 40 41 39 39 41 41 38 37 37 38 39 39 37 35 34 34 35 36 34 34 35 34 32 30 30 29 28 27 27 26 25 24 24 24 24 24 24 25 25 25 26
35 33 32 32 32 31 32 31 29 28 27 26 25 26 27 27 26 25 24 25 27 30 36 40 41 39 40 40 39 38 38 39 40 41 39 36 35 34 34 34 35 35 35 35 34 32 32 32 30 28 27 27 26 26 25 23 23 23 23 24 25 25 25
39 37 34 33 33 32 32 33 33 32 30 29 27 27 27 28 27 26 25 24 24 26 29 34 37 37 38 39 39 38 37 37 39 42 40 38 37 37 35 34 35 36 37 36 35 34 33 33 31 29 29 30 29 29 28 26 25 24 24 24 24 24 24
39 38 35 34 33 32 32 33 34 35 34 32 30 29 28 26 24 24 25 24 23 24 24 26 30 32 34 36 37 37 37 37 39 41 41 39 39 39 37 37 36 36 36 37 36 35 34 34 33 32 32 33 33 32 32 31 29 27 26 26 26 26 26
38 36 34 33 31 29 29 30 32 34 34 35 34 32 31 27 22 22 24 24 22 23 22 21 22 25 27 30 31 33 35 36 38 40 40 40 39 38 39 39 39 39 39 38 37 36 34 33 33 33 34 37 38 36 34 34 33 31 29 29 28 28 28
34 33 32 32 30 27 24 25 28 30 32 34 34 33 33 31 27 26 26 25 25 26 25 23 22 21 22 23 23 24 26 28 30 33 35 37 39 39 40 41 41 42 42 41 39 37 33 31 31 31 31 34 38 39 36 34 33 33 32 31 31 30 30
32 31 30 30 28 24 20 20 23 26 29 30 31 32 33 32 30 28 26 26 26 26 25 25 23 21 20 20 21 22 21 20 22 23 25 28 31 33 35 38 40 40 40 39 37 34 31 30 29 27 25 24 28 33 35 33 31 32 32 31 31 31 31
37 35 34 32 29 25 21 21 21 22 24 25 26 28 29 30 30 28 25 23 23 23 23 24 23 20 18 19 20 21 20 20 20 19 18 19 19 18 20 24 29 31 31 31 30 29 28 27 26 24 22 19 19 23 26 26 25 25 26 26 26 27 28
41 40 39 38 37 34 32 30 26 22 20 21 22 23 24 25 27 26 24 23 22 20 20 22 21 19 17 17 17 18 19 19 18 16 16 16 15 13 14 16 18 20 21 21 21 22 23 23 23 24 24 22 20 20 21 22 23 22 22 23 23 24 24
42 40 39 38 39 39 39 37 33 28 23 20 21 22 21 21 22 23 23 24 25 21 18 17 18 18 18 19 19 20 20 19 17 17 17 17 16 17 18 18 17 17 18 18 18 20 21 20 21 23 23 23 23 23 23 25 25 23 23 24 25 24 24
41 40 39 38 36 36 37 36 34 33 30 26 24 23 22 21 21 22 22 24 26 25 22 18 17 17 18 21 24 24 24 23 22 20 20 21 21 20 19 19 18 19 20 21 22 23 23 22 22 23 22 23 24 26 26 26 26 24 24 24 25 26 25
39 37 37 36 33 31 31 31 30 31 32 31 28 27 25 24 23 23 24 25 26 25 23 20 17 16 17 19 22 24 25 26 26 25 25 25 24 22 21 20 20 21 22 24 26 27 27 27 26 27 27 28 28 29 29 28 28 27 26 26 27 28 28
31 31 31 30 28 25 25 26 26 26 28 29 29 28 27 27 26 25 25 25 26 25 23 22 21 20 20 21 22 22 23 25 26 27 27 28 26 25 24 23 23 22 23 25 26 27 28 28 28 29 30 32 32 33 32 31 31 30 30 29 29 30 31
24 25 25 25 23 22 22 22 23 24 24 25 26 27 27 26 27 27 27 27 27 26 24 23 22 22 22 24 25 26 26 26 27 28 29 29 29 27 25 24 23 23 23 24 25 27 28 29 31 31 32 33 34 35 35 35 34 33 33 33 33 33 33
20 21 22 22 21 21 21 21 22 23 23 23 24 25 26 26 25 25 26 27 28 27 26 25 23 22 22 22 24 25 26 27 28 29 29 29 29 28 27 26 26 26 27 27 28 29 30 32 33 34 35 35 36 36 36 36 36 36 35 35 35 35 35
18 18 19 19 19 20 20 20 21 22 22 23 23 23 24 25 26 25 25 26 27 28 27 27 26 25 25 24 25 25 26 26 28 29 29 30 30 31 31 31 31 32 32 33 34 34 35 35 36 37 38 39 39 39 39 38 38 38 38 37 37 37 37
17 17 17 18 18 18 19 19 20 20 21 21 22 22 22 23 24 25 26 26 26 27 28 28 28 28 28 29 29 29 29 30 30 31 32 33 34 35 35 35 36 37 38 38 39 40 40 40 40 40 41 41 42 42 42 42 41 41 41 40 40 39 39
Wind_Direction
190 196 208 219 220 214 207 204 204 203 203 204 203 202 199 194 196 200 199 197 197 195 194 194 196 198 201 202 203 203 203 204 205 204 205 205 207 212 217 220 225 222 213 205 198 193 197 200 200 200 198 195 196 197 196 196 197 196 195 194 194 190 179
184 190 202 214 218 215 206 203 205 202 200 205 208 207 205 199 197 201 204 203 199 198 197 197 198 199 201 204 205 205 205 205 206 204 204 205 208 213 216 219 227 232 228 223 213 202 201 206 208 207 207 207 205 206 206 207 209 211 211 211 210 210 206
186 188 197 206 211 213 206 201 205 203 198 204 211 211 210 206 202 203 206 206 203 200 199 200 202 202 202 204 207 208 207 207 208 207 206 207 209 210 213 217 222 227 232 235 230 216 210 212 215 215 214 213 213 214 215 217 220 221 222 223 223 223 222
189 192 196 202 205 207 203 198 200 201 198 201 209 212 211 210 207 206 207 208 207 204 201 202 204 205 204 204 206 208 209 209 210 211 209 208 208 209 210 213 217 223 229 236 239 233 225 220 221 223 223 223 224 225 225 226 228 227 226 230 232 232 231
184 193 199 201 204 205 202 198 197 199 199 201 207 211 212 212 210 209 209 210 211 210 208 206 206 207 208 207 207 208 210 211 212 214 214 211 211 211 211 211 215 222 224 228 234 237 236 231 227 226 228 233 237 238 238 236 237 236 234 235 237 237 239
183 193 197 197 201 205 204 202 199 200 201 202 206 209 210 211 211 211 211 211 213 215 214 212 210 210 211 212 212 212 213 213 213 216 217 216 216 216 217 214 215 221 224 226 230 234 238 239 237 234 232 235 242 246 246 244 243 243 242 239 239 242 247
185 192 191 187 194 203 208 207 203 203 203 204 208 211 211 210 210 210 210 211 214 217 217 216 215 214 214 214 215 216 217 216 215 217 219 220 220 220 220 218 217 220 222 226 229 231 237 242 245 243 240 239 242 243 248 251 250 247 246 246 245 247 254
186 192 193 187 189 198 205 208 207 206 207 208 212 216 218 215 214 213 210 210 212 215 216 217 217 217 216 216 216 217 219 219 218 219 219 220 222 223 222 221 222 222 221 224 227 231 236 242 248 250 246 243 243 243 245 251 255 255 253 253 252 254 259
190 192 198 198 196 195 198 203 208 210 210 211 215 221 224 222 220 219 215 212 212 213 215 217 219 219 219 219 219 218 219 220 220 221 221 221 222 223 225 226 227 227 226 226 228 230 233 239 245 249 248 246 246 247 247 249 253 257 258 260 260 260 264
199 194 196 203 206 205 203 205 210 214 216 217 219 225 228 227 224 224 223 219 215 214 215 216 218 219 219 220 222 222 221 220 220 221 222 222 222 222 225 227 229 230 231 231 231 231 231 234 239 244 246 246 245 247 248 249 251 253 255 258 261 262 264
214 206 200 201 205 208 209 211 214 218 220 221 222 225 229 231 230 230 231 231 228 226 223 221 220 220 220 219 221 223 224 223 222 221 222 222 222 221 222 224 226 230 231 232 233 233 232 232 235 239 241 243 244 245 246 247 249 252 254 255 257 259 259
232 228 219 211 208 207 206 209 213 217 221 224 224 225 228 232 234 234 236 238 238 237 236 232 229 227 226 225 224 224 225 226 225 223 223 223 222 221 220 221 223 227 229 230 232 232 231 232 234 237 238 239 241 243 244 245 248 251 254 255 256 257 256
239 241 237 229 224 218 212 211 214 216 219 221 223 226 228 229 229 229 231 235 235 235 235 235 235 235 233 230 228 227 228 229 229 227 226 225 224 223 221 220 221 223 225 227 230 231 231 231 233 235 237 238 239 240 242 244 247 249 251 253 254 255 255
251 250 246 240 235 230 223 221 222 221 219 219 222 225 227 228 228 227 227 230 234 235 234 232 231 234 235 232 229 229 231 234 235 235 234 232 231 230 228 226 224 224 224 224 226 229 231 232 233 234 236 237 239 240 241 242 244 246 247 249 251 252 253
261 259 256 249 243 237 231 230 232 232 229 229 229 228 226 224 226 230 231 229 232 236 237 235 233 234 236 234 231 230 232 234 237 239 241 241 240 239 238 236 234 232 231 229 228 228 230 233 235 235 236 237 240 243 245 245 246 247 249 249 251 252 254
260 260 259 255 251 247 242 240 242 243 239 237 238 236 231 225 225 232 236 234 235 238 239 238 237 236 237 237 235 234 233 233 234 237 240 241 241 239 238 238 238 238 237 236 236 235 233 234 236 238 239 239 241 244 247 248 248 248 249 250 251 253 253
256 257 257 256 254 251 249 249 252 253 248 243 243 243 239 232 230 235 238 236 236 238 239 239 238 236 236 237 236 237 237 235 234 235 237 238 238 237 236 235 235 236 237 239 242 243 241 238 238 241 242 242 241 243 245 247 247 248 248 249 250 250 250
254 254 254 255 257 255 253 254 255 254 251 249 250 251 248 241 238 241 240 236 233 233 233 235 237 236 237 238 239 240 241 239 236 235 235 236 236 236 237 235 233 233 235 235 238 243 245 243 240 241 245 247 247 246 246 247 247 248 250 251 252 252 251
254 252 251 252 255 256 254 255 255 254 254 254 253 255 255 251 247 246 246 242 237 234 230 229 234 236 235 236 239 241 242 242 241 240 239 238 238 238 238 238 236 235 234 232 233 237 243 245 242 240 243 248 252 253 253 252 251 250 252 253 254 254 253
251 250 249 248 250 252 253 254 255 256 260 259 256 255 255 254 251 249 248 246 242 238 233 230 235 237 233 231 236 240 240 240 240 242 243 242 241 240 240 241 240 238 235 233 234 236 239 243 243 241 240 242 247 252 255 257 255 253 253 254 254 255 254
250 250 249 247 247 248 251 253 255 257 261 261 258 257 257 256 255 251 248 247 244 240 236 232 235 238 235 232 236 240 240 239 238 238 240 242 242 241 239 239 242 241 237 235 238 241 242 243 245 244 242 241 239 240 245 251 254 256 255 255 255 255 255
253 254 254 253 250 248 249 252 253 254 258 259 257 257 257 258 259 257 254 252 248 243 238 233 233 236 234 231 233 237 239 239 237 236 237 238 241 241 237 235 236 238 237 236 239 243 242 240 242 243 244 244 242 240 240 243 248 253 255 256 255 255 255
258 259 260 261 258 253 251 252 254 254 255 256 256 258 259 260 260 260 259 258 256 252 245 238 236 237 234 230 230 234 238 238 237 237 236 236 238 239 238 234 231 232 236 238 240 242 241 240 242 243 244 245 246 245 245 245 246 249 252 254 254 254 255
262 262 264 266 264 260 255 253 255 257 257 256 257 259 262 265 269 270 267 264 263 262 255 246 241 238 235 233 232 233 237 239 238 237 235 234 236 237 237 237 236 236 237 239 241 245 245 243 244 246 247 249 249 249 248 247 247 248 249 250 252 253 254
264 265 267 270 271 267 262 257 257 258 259 260 260 261 264 268 272 273 272 271 268 267 264 256 248 243 243 243 240 236 237 237 236 236 235 233 236 238 238 240 241 240 240 240 242 248 250 247 246 250 253 254 253 252 250 247 247 250 250 250 250 251 253
265 266 269 274 276 272 266 261 259 259 259 260 261 262 264 263 258 258 268 273 271 268 268 265 260 256 254 251 246 241 239 237 237 238 236 234 236 240 241 241 242 242 242 241 243 248 250 248 248 253 257 257 255 253 252 249 248 251 252 251 251 252 253
264 267 272 276 276 272 268 266 264 261 258 257 258 259 261 261 258 258 265 270 270 270 270 269 271 272 262 253 247 243 239 237 238 239 238 237 240 242 242 241 241 242 242 241 243 246 246 245 247 250 257 260 255 249 248 250 251 253 255 255 255 256 257
263 267 273 274 269 266 268 270 269 265 260 258 257 256 256 258 260 260 262 265 267 270 270 269 269 266 256 248 245 241 235 234 236 237 236 237 239 240 238 236 235 237 237 237 238 240 239 241 246 250 255 261 253 242 241 246 249 252 256 256 255 257 257
264 267 270 269 262 260 269 276 271 264 262 263 261 258 255 254 255 256 257 260 263 263 263 261 257 251 245 242 243 239 233 228 228 228 231 234 237 238 235 229 225 225 226 227 231 235 238 244 252 255 253 255 249 239 240 247 248 248 251 254 254 256 256
266 269 271 270 264 261 269 279 276 264 261 267 268 266 261 255 253 253 252 254 255 253 250 247 244 239 235 233 234 233 229 225 226 229 233 234 234 234 232 230 225 222 223 225 230 236 243 249 258 261 258 256 251 241 240 249 253 252 253 255 256 257 257
265 268 270 271 269 266 270 276 275 267 263 266 268 268 267 263 258 253 248 247 247 244 240 238 236 233 229 223 220 221 220 219 224 231 232 230 227 225 228 234 237 236 235 236 236 238 242 249 257 261 263 264 261 254 248 250 256 259 260 261 262 262 262
264 265 267 270 272 271 271 272 270 265 263 264 264 263 264 265 262 255 248 245 244 243 242 240 238 236 233 227 224 225 225 225 227 230 231 233 233 231 233 240 245 246 246 246 243 242 243 247 251 254 256 259 261 260 257 255 256 259 260 261 264 265 265
262 263 265 268 270 270 267 265 262 259 259 260 261 261 262 263 263 260 253 248 244 242 238 237 239 242 241 236 232 232 233 234 234 231 228 231 237 242 247 251 252 251 249 247 246 246 247 248 249 251 253 255 257 259 260 259 258 258 258 258 259 261 262
259 260 261 263 265 265 262 258 256 254 254 255 256 259 262 263 264 265 263 258 254 251 248 249 255 257 253 249 245 242 240 239 239 237 235 239 249 258 261 261 259 254 250 247 247 249 252 255 256 257 258 258 260 262 263 263 262 261 261 260 259 259 260
250 252 254 257 259 260 260 258 256 254 253 253 253 255 258 261 262 265 266 266 264 263 262 262 266 266 261 256 253 251 250 249 250 251 251 254 259 263 264 263 262 259 255 252 250 251 254 258 261 262 263 263 263 264 265 265 265 265 264 264 264 263 263
244 248 251 255 257 258 259 258 257 256 256 256 254 254 255 258 259 260 260 262 263 265 264 263 264 265 263 260 256 254 254 254 254 256 258 260 263 264 264 264 263 262 260 258 257 256 256 258 260 262 262 263 264 264 264 265 266 266 266 267 267 266 266
243 247 251 254 256 256 256 256 256 256 256 256 256 255 255 256 258 258 257 256 256 259 260 259 257 256 255 255 255 254 253 253 253 255 256 258 259 260 261 261 261 261 260 260 259 258 257 257 258 259 260 261 262 263 264 264 264 264 265 265 266 267 267
239 241 244 247 250 251 252 253 254 254 254 254 255 255 254 254 255 256 257 256 254 254 255 256 255 253 251 250 250 250 251 251 251 251 251 252 254 255 256 258 259 260 260 261 262 262 261 261 261 261 261 262 262 263 264 265 265 264 264 264 264 265 265